QPF
0.00 0.00 0.00 0.00 0.01 0.01 0.00 0.00 0.02 0.02 0.02 0.02 0.02 0.00 0.00 0.00 0.00 0.00 0.00 0.00 0.00 0.00 0.00 0.00 0.01 0.00 0.00 0.00 0.00 0.00 0.00 0.00 0.03 0.04 0.04 0.00 0.00 0.00 0.00 0.00 0.00 0.00 0.00 0.00 0.00 0.00 0.00 0.00 0.00
0.00 0.00 0.00 0.00 0.00 0.00 0.02 0.01 0.01 0.00 0.02 0.02 0.00 0.00 0.01 0.01 0.01 0.00 0.00 0.00 0.00 0.00 0.00 0.00 0.00 0.00 0.00 0.00 0.00 0.00 0.00 0.01 0.02 0.01 0.02 0.07 0.04 0.00 0.00 0.00 0.00 0.00 0.00 0.00 0.00 0.00 0.00 0.00 0.00
0.00 0.00 0.00 0.00 0.00 0.00 0.00 0.01 0.00 0.00 0.01 0.00 0.00 0.00 0.00 0.00 0.01 0.00 0.00 0.00 0.00 0.00 0.00 0.00 0.00 0.00 0.00 0.00 0.00 0.01 0.02 0.01 0.01 0.02 0.04 0.04 0.05 0.01 0.00 0.00 0.00 0.00 0.00 0.00 0.00 0.00 0.00 0.00 0.00
0.00 0.00 0.00 0.00 0.00 0.01 0.00 0.00 0.00 0.00 0.00 0.01 0.00 0.00 0.00 0.00 0.00 0.00 0.00 0.00 0.00 0.00 0.00 0.00 0.00 0.00 0.01 0.01 0.01 0.03 0.01 0.01 0.00 0.00 0.00 0.00 0.01 0.00 0.00 0.00 0.00 0.00 0.00 0.00 0.02 0.01 0.00 0.00 0.00
0.00 0.00 0.00 0.00 0.00 0.00 0.00 0.00 0.00 0.00 0.00 0.00 0.00 0.00 0.00 0.00 0.00 0.00 0.00 0.00 0.00 0.00 0.00 0.00 0.02 0.01 0.02 0.01 0.01 0.01 0.03 0.00 0.00 0.03 0.00 0.01 0.00 0.01 0.02 0.00 0.00 0.00 0.00 0.00 0.04 0.04 0.01 0.00 0.00
0.00 0.00 0.00 0.00 0.00 0.00 0.00 0.00 0.00 0.00 0.00 0.00 0.00 0.00 0.00 0.00 0.00 0.00 0.00 0.00 0.00 0.00 0.00 0.00 0.00 0.00 0.00 0.00 0.02 0.02 0.01 0.00 0.02 0.02 0.01 0.02 0.01 0.01 0.01 0.00 0.00 0.00 0.00 0.00 0.03 0.06 0.03 0.00 0.00
0.00 0.00 0.00 0.00 0.00 0.00 0.00 0.00 0.00 0.00 0.00 0.00 0.00 0.00 0.00 0.00 0.00 0.00 0.00 0.00 0.00 0.00 0.00 0.00 0.00 0.00 0.00 0.00 0.00 0.00 0.00 0.02 0.03 0.00 0.02 0.01 0.00 0.00 0.00 0.00 0.00 0.00 0.01 0.01 0.02 0.02 0.04 0.00 0.00
0.00 0.00 0.00 0.00 0.00 0.00 0.01 0.00 0.00 0.00 0.00 0.00 0.00 0.00 0.00 0.00 0.00 0.00 0.00 0.00 0.00 0.00 0.00 0.00 0.00 0.00 0.00 0.00 0.00 0.00 0.00 0.02 0.01 0.00 0.01 0.00 0.00 0.00 0.00 0.00 0.00 0.00 0.00 0.00 0.01 0.01 0.02 0.06 0.07
0.00 0.00 0.00 0.00 0.00 0.00 0.00 0.00 0.00 0.00 0.00 0.00 0.00 0.00 0.00 0.00 0.00 0.00 0.00 0.00 0.00 0.00 0.00 0.00 0.00 0.00 0.00 0.00 0.00 0.00 0.00 0.00 0.00 0.00 0.00 0.00 0.00 0.00 0.00 0.00 0.00 0.00 0.00 0.00 0.00 0.00 0.00 0.01 0.03
0.00 0.00 0.00 0.00 0.00 0.00 0.00 0.00 0.00 0.00 0.00 0.00 0.00 0.00 0.00 0.00 0.00 0.00 0.00 0.00 0.00 0.00 0.00 0.00 0.00 0.00 0.00 0.00 0.00 0.00 0.00 0.00 0.00 0.00 0.00 0.00 0.00 0.01 0.00 0.00 0.00 0.01 0.00 0.00 0.00 0.01 0.00 0.02 0.05
0.00 0.00 0.00 0.00 0.00 0.00 0.00 0.00 0.00 0.00 0.00 0.00 0.00 0.00 0.00 0.00 0.00 0.00 0.00 0.00 0.00 0.00 0.00 0.00 0.00 0.00 0.00 0.00 0.00 0.00 0.00 0.00 0.00 0.00 0.00 0.00 0.00 0.00 0.00 0.01 0.00 0.00 0.00 0.01 0.01 0.03 0.11 0.06 0.04
0.00 0.00 0.00 0.00 0.00 0.00 0.00 0.00 0.00 0.00 0.00 0.00 0.00 0.00 0.00 0.00 0.00 0.00 0.00 0.00 0.00 0.00 0.00 0.00 0.00 0.00 0.00 0.00 0.00 0.00 0.00 0.00 0.00 0.00 0.00 0.00 0.00 0.00 0.00 0.04 0.00 0.00 0.00 0.00 0.00 0.00 0.00 0.00 0.00
0.00 0.00 0.00 0.00 0.00 0.00 0.00 0.00 0.00 0.00 0.00 0.00 0.00 0.00 0.00 0.00 0.00 0.00 0.00 0.00 0.00 0.00 0.00 0.00 0.00 0.00 0.00 0.00 0.00 0.00 0.00 0.00 0.00 0.00 0.00 0.00 0.00 0.00 0.00 0.00 0.00 0.05 0.04 0.01 0.00 0.00 0.00 0.00 0.00
0.00 0.00 0.00 0.00 0.00 0.00 0.00 0.00 0.00 0.00 0.00 0.00 0.00 0.00 0.00 0.00 0.00 0.00 0.00 0.00 0.00 0.00 0.00 0.00 0.00 0.00 0.00 0.00 0.00 0.00 0.00 0.00 0.00 0.00 0.00 0.00 0.00 0.00 0.00 0.02 0.01 0.00 0.02 0.05 0.07 0.07 0.01 0.00 0.00
0.00 0.00 0.00 0.00 0.00 0.00 0.00 0.00 0.00 0.01 0.00 0.00 0.00 0.00 0.00 0.00 0.00 0.00 0.00 0.00 0.00 0.00 0.00 0.00 0.00 0.01 0.00 0.00 0.00 0.00 0.00 0.00 0.00 0.00 0.00 0.00 0.00 0.00 0.00 0.06 0.05 0.02 0.04 0.09 0.09 0.05 0.00 0.00 0.00
0.00 0.00 0.00 0.00 0.00 0.00 0.00 0.00 0.00 0.01 0.00 0.00 0.00 0.00 0.00 0.00 0.00 0.00 0.00 0.00 0.00 0.00 0.00 0.00 0.00 0.00 0.00 0.00 0.00 0.00 0.00 0.00 0.00 0.00 0.00 0.02 0.07 0.11 0.05 0.15 0.13 0.10 0.04 0.03 0.00 0.01 0.00 0.00 0.00
0.00 0.00 0.00 0.00 0.00 0.00 0.00 0.00 0.00 0.00 0.00 0.00 0.00 0.00 0.00 0.00 0.00 0.00 0.00 0.00 0.00 0.00 0.00 0.00 0.00 0.00 0.00 0.00 0.00 0.00 0.00 0.00 0.00 0.00 0.00 0.05 0.12 0.22 0.18 0.09 0.02 0.01 0.01 0.08 0.04 0.09 0.01 0.00 0.00
0.00 0.00 0.00 0.00 0.00 0.00 0.00 0.00 0.00 0.00 0.00 0.00 0.00 0.00 0.00 0.00 0.00 0.00 0.00 0.00 0.00 0.00 0.00 0.00 0.00 0.00 0.00 0.00 0.00 0.00 0.00 0.00 0.00 0.01 0.04 0.14 0.14 0.19 0.16 0.21 0.18 0.12 0.08 0.06 0.03 0.00 0.00 0.00 0.00
0.00 0.00 0.00 0.00 0.00 0.00 0.00 0.00 0.00 0.00 0.00 0.00 0.00 0.00 0.00 0.00 0.00 0.00 0.00 0.00 0.00 0.00 0.00 0.00 0.00 0.00 0.00 0.00 0.00 0.00 0.00 0.00 0.00 0.01 0.06 0.10 0.06 0.08 0.18 0.27 0.25 0.22 0.11 0.05 0.05 0.00 0.00 0.03 0.01
0.00 0.00 0.00 0.00 0.00 0.00 0.00 0.00 0.00 0.00 0.00 0.00 0.00 0.00 0.00 0.00 0.00 0.00 0.00 0.00 0.00 0.00 0.00 0.00 0.00 0.00 0.00 0.00 0.00 0.00 0.00 0.00 0.01 0.00 0.01 0.08 0.10 0.02 0.05 0.04 0.10 0.15 0.09 0.00 0.01 0.08 0.04 0.01 0.00
0.00 0.00 0.00 0.00 0.00 0.00 0.00 0.00 0.00 0.00 0.00 0.00 0.00 0.00 0.00 0.00 0.00 0.00 0.00 0.00 0.00 0.00 0.00 0.00 0.00 0.00 0.00 0.00 0.00 0.00 0.00 0.00 0.00 0.00 0.00 0.00 0.04 0.01 0.01 0.00 0.00 0.01 0.00 0.00 0.00 0.01 0.00 0.02 0.00
0.00 0.00 0.00 0.00 0.00 0.00 0.00 0.00 0.00 0.00 0.00 0.00 0.00 0.00 0.00 0.00 0.00 0.00 0.00 0.00 0.00 0.00 0.00 0.00 0.00 0.00 0.00 0.01 0.00 0.00 0.00 0.00 0.00 0.00 0.05 0.01 0.04 0.01 0.00 0.00 0.00 0.00 0.00 0.00 0.00 0.00 0.00 0.00 0.00
0.00 0.00 0.00 0.00 0.00 0.00 0.00 0.00 0.00 0.00 0.00 0.00 0.00 0.00 0.00 0.00 0.00 0.00 0.00 0.00 0.00 0.00 0.00 0.00 0.00 0.00 0.01 0.01 0.01 0.00 0.00 0.00 0.00 0.05 0.09 0.02 0.01 0.00 0.00 0.00 0.00 0.00 0.00 0.00 0.00 0.00 0.00 0.00 0.00
0.00 0.00 0.00 0.00 0.00 0.00 0.00 0.00 0.00 0.00 0.00 0.00 0.00 0.00 0.00 0.00 0.00 0.00 0.00 0.00 0.00 0.00 0.00 0.00 0.00 0.01 0.01 0.00 0.00 0.00 0.00 0.00 0.04 0.06 0.02 0.02 0.00 0.00 0.00 0.00 0.00 0.00 0.00 0.00 0.00 0.00 0.00 0.00 0.00
0.00 0.00 0.00 0.00 0.00 0.00 0.00 0.00 0.00 0.00 0.00 0.00 0.00 0.00 0.00 0.00 0.00 0.00 0.00 0.00 0.00 0.00 0.00 0.00 0.00 0.01 0.00 0.00 0.00 0.00 0.00 0.00 0.04 0.05 0.03 0.01 0.00 0.00 0.00 0.00 0.00 0.00 0.00 0.00 0.00 0.00 0.00 0.00 0.00
0.00 0.00 0.00 0.00 0.00 0.00 0.00 0.00 0.00 0.00 0.00 0.00 0.00 0.00 0.00 0.00 0.00 0.00 0.00 0.00 0.00 0.00 0.00 0.00 0.00 0.01 0.00 0.00 0.00 0.00 0.00 0.01 0.08 0.06 0.05 0.00 0.00 0.00 0.00 0.00 0.00 0.00 0.00 0.00 0.00 0.00 0.00 0.00 0.00
0.00 0.00 0.00 0.00 0.00 0.00 0.00 0.00 0.00 0.00 0.00 0.00 0.00 0.00 0.00 0.00 0.00 0.00 0.00 0.00 0.00 0.00 0.00 0.00 0.00 0.01 0.01 0.00 0.00 0.00 0.00 0.02 0.05 0.06 0.01 0.00 0.00 0.00 0.00 0.00 0.00 0.00 0.00 0.00 0.00 0.00 0.00 0.00 0.00
0.00 0.00 0.00 0.00 0.00 0.00 0.00 0.00 0.00 0.00 0.00 0.00 0.00 0.00 0.00 0.00 0.00 0.00 0.00 0.00 0.00 0.00 0.00 0.00 0.01 0.01 0.01 0.00 0.00 0.00 0.00 0.01 0.06 0.03 0.00 0.00 0.00 0.00 0.00 0.00 0.00 0.00 0.00 0.00 0.00 0.00 0.00 0.00 0.00
0.00 0.00 0.00 0.00 0.00 0.00 0.00 0.00 0.00 0.00 0.00 0.00 0.00 0.00 0.00 0.00 0.00 0.00 0.00 0.00 0.00 0.00 0.00 0.00 0.00 0.00 0.00 0.00 0.00 0.00 0.00 0.00 0.04 0.01 0.00 0.00 0.00 0.00 0.00 0.00 0.00 0.00 0.00 0.00 0.00 0.00 0.00 0.00 0.00
0.00 0.00 0.00 0.00 0.00 0.00 0.00 0.00 0.00 0.00 0.00 0.00 0.00 0.00 0.00 0.00 0.00 0.00 0.00 0.00 0.00 0.00 0.00 0.00 0.00 0.00 0.00 0.00 0.00 0.00 0.01 0.00 0.02 0.00 0.00 0.00 0.00 0.00 0.00 0.00 0.00 0.00 0.00 0.00 0.00 0.00 0.00 0.00 0.00
MSLP
1008.09 1008.40 1008.74 1009.09 1009.51 1009.09 1009.33 1009.03 1008.75 1008.68 1008.85 1008.56 1008.55 1009.16 1009.72 1010.42 1011.14 1012.56 1012.33 1012.29 1012.31 1012.74 1012.86 1013.06 1013.32 1013.54 1013.80 1014.11 1014.31 1014.54 1014.77 1014.96 1015.33 1015.49 1015.57 1015.54 1015.69 1015.85 1016.02 1016.15 1016.19 1016.18 1016.23 1016.29 1016.24 1016.33 1016.41 1016.43 1016.52
1008.44 1008.78 1008.87 1008.97 1009.30 1009.35 1009.28 1008.55 1008.18 1008.16 1008.18 1008.30 1008.46 1009.07 1009.65 1010.62 1011.27 1012.02 1012.44 1012.42 1012.35 1012.63 1012.97 1013.26 1013.52 1013.83 1014.06 1014.32 1014.54 1014.82 1014.99 1015.27 1015.42 1015.61 1015.71 1015.79 1015.90 1016.06 1016.29 1016.29 1016.42 1016.39 1016.45 1016.54 1016.55 1016.58 1016.58 1016.68 1016.83
1008.64 1008.56 1009.19 1009.00 1009.47 1009.39 1008.84 1008.42 1008.01 1008.13 1008.07 1008.16 1008.53 1009.02 1009.95 1010.94 1011.57 1011.96 1012.12 1012.38 1012.44 1012.92 1013.19 1013.46 1013.73 1014.08 1014.34 1014.57 1014.81 1015.04 1015.23 1015.42 1015.61 1015.79 1015.88 1015.98 1016.15 1016.23 1016.31 1016.44 1016.54 1016.58 1016.62 1016.72 1016.74 1016.73 1016.77 1016.85 1017.03
1008.50 1008.92 1009.17 1008.99 1009.17 1008.66 1008.22 1008.11 1007.83 1007.83 1007.71 1008.09 1008.67 1009.79 1010.55 1010.85 1011.44 1011.85 1012.24 1012.45 1012.77 1013.17 1013.37 1013.57 1013.91 1014.23 1014.50 1014.77 1015.00 1015.25 1015.43 1015.55 1015.71 1015.78 1015.84 1015.91 1016.09 1016.17 1016.24 1016.42 1016.56 1016.62 1016.74 1016.82 1016.90 1016.95 1016.97 1017.13 1017.21
1008.68 1008.93 1009.20 1009.19 1008.75 1008.11 1007.79 1007.79 1007.74 1007.77 1007.91 1008.20 1008.69 1010.31 1011.23 1011.55 1011.44 1011.99 1012.34 1012.58 1012.84 1013.40 1013.57 1013.72 1014.05 1014.32 1014.58 1014.81 1015.10 1015.37 1015.51 1015.67 1015.85 1015.90 1015.87 1015.98 1016.17 1016.16 1016.31 1016.45 1016.60 1016.65 1016.80 1016.86 1016.93 1017.13 1017.17 1017.27 1017.34
1008.78 1009.02 1009.43 1009.25 1008.48 1007.71 1007.31 1007.34 1007.48 1007.61 1007.91 1008.46 1009.28 1010.34 1011.57 1011.77 1011.81 1012.32 1012.62 1012.88 1013.09 1013.48 1013.74 1013.95 1014.19 1014.41 1014.64 1014.95 1015.22 1015.48 1015.64 1015.78 1015.92 1016.03 1016.05 1016.19 1016.25 1016.27 1016.34 1016.50 1016.62 1016.71 1016.85 1016.90 1017.00 1017.21 1017.27 1017.35 1017.49
1008.43 1009.00 1009.38 1008.88 1008.32 1007.30 1006.68 1006.73 1007.18 1007.39 1007.79 1008.34 1008.82 1010.33 1011.84 1012.19 1012.35 1012.56 1012.95 1013.22 1013.57 1013.73 1014.07 1014.22 1014.33 1014.54 1014.85 1015.13 1015.34 1015.45 1015.58 1015.78 1015.91 1016.03 1016.12 1016.17 1016.22 1016.28 1016.39 1016.49 1016.61 1016.72 1016.86 1016.91 1017.02 1017.11 1017.30 1017.40 1017.53
1008.32 1008.85 1009.02 1008.45 1007.73 1006.77 1006.26 1006.36 1006.57 1007.03 1007.64 1008.05 1008.37 1009.89 1011.40 1011.89 1012.39 1012.82 1013.29 1013.67 1013.99 1014.24 1014.28 1014.52 1014.70 1014.82 1015.05 1015.23 1015.38 1015.52 1015.66 1015.88 1015.87 1015.98 1016.15 1016.10 1016.19 1016.30 1016.44 1016.53 1016.53 1016.61 1016.68 1016.88 1017.08 1017.17 1017.28 1017.41 1017.47
1008.05 1008.37 1008.34 1007.27 1006.72 1006.16 1005.81 1006.14 1006.72 1006.84 1007.49 1008.01 1008.50 1009.11 1010.10 1011.49 1012.34 1013.11 1013.66 1014.14 1014.37 1014.45 1014.60 1014.76 1014.99 1015.13 1015.29 1015.52 1015.55 1015.53 1015.63 1015.74 1015.87 1015.99 1016.09 1016.18 1016.35 1016.45 1016.50 1016.56 1016.60 1016.59 1016.68 1016.84 1016.93 1017.12 1017.26 1017.46 1017.50
1007.88 1007.87 1007.05 1006.02 1005.61 1005.65 1005.61 1005.77 1006.47 1007.21 1007.91 1008.39 1009.33 1009.92 1010.67 1011.61 1012.27 1012.93 1013.48 1013.90 1014.32 1014.53 1014.77 1014.94 1015.09 1015.25 1015.39 1015.45 1015.70 1015.77 1015.80 1015.84 1016.00 1016.18 1016.24 1016.31 1016.42 1016.58 1016.63 1016.62 1016.52 1016.51 1016.52 1016.65 1016.76 1016.93 1017.09 1017.25 1017.53
1007.57 1007.12 1006.15 1005.45 1005.18 1004.98 1005.49 1005.98 1006.25 1007.05 1007.92 1008.13 1009.18 1010.31 1011.08 1011.81 1012.40 1012.88 1013.35 1013.71 1013.92 1014.34 1014.68 1014.80 1015.01 1015.13 1015.41 1015.48 1015.68 1015.80 1015.91 1016.00 1016.14 1016.26 1016.34 1016.35 1016.45 1016.56 1016.62 1016.69 1016.69 1016.68 1016.61 1016.58 1016.70 1016.86 1017.07 1017.16 1017.36
1006.89 1006.23 1005.61 1004.98 1004.66 1004.95 1005.40 1005.93 1006.36 1006.82 1007.02 1007.45 1008.57 1009.72 1010.73 1011.71 1012.19 1012.57 1012.93 1013.27 1013.68 1014.14 1014.45 1014.68 1014.98 1015.18 1015.25 1015.35 1015.51 1015.70 1015.95 1016.05 1016.13 1016.15 1016.26 1016.49 1016.55 1016.64 1016.73 1016.73 1016.78 1016.76 1016.73 1016.79 1016.86 1017.00 1017.00 1017.06 1017.09
1006.11 1005.54 1005.10 1004.66 1004.52 1004.93 1005.39 1005.98 1006.44 1007.02 1007.20 1007.72 1008.92 1009.90 1010.78 1011.41 1011.89 1012.24 1012.62 1013.14 1013.53 1013.83 1014.08 1014.39 1014.62 1014.79 1014.87 1015.21 1015.41 1015.61 1015.75 1015.84 1015.96 1016.08 1016.13 1016.30 1016.45 1016.60 1016.70 1016.72 1016.73 1016.70 1016.72 1016.78 1016.94 1017.05 1016.97 1016.94 1016.88
1005.48 1005.62 1005.35 1004.80 1004.64 1005.01 1005.55 1006.24 1006.35 1007.09 1007.57 1008.46 1009.27 1010.07 1010.58 1011.16 1011.47 1012.22 1012.54 1012.82 1013.07 1013.29 1013.58 1014.01 1014.27 1014.60 1014.81 1015.14 1015.33 1015.35 1015.46 1015.55 1015.81 1015.92 1015.91 1016.01 1016.14 1016.31 1016.51 1016.66 1016.61 1016.65 1016.68 1016.82 1016.82 1016.73 1016.67 1016.62 1016.55
1005.42 1005.53 1004.80 1004.93 1005.02 1005.54 1005.45 1006.38 1006.99 1007.27 1007.84 1008.77 1009.40 1009.98 1010.35 1010.71 1011.38 1011.30 1011.44 1011.93 1012.38 1012.54 1013.06 1013.53 1013.95 1014.23 1014.69 1014.89 1014.96 1015.15 1015.29 1015.41 1015.56 1015.56 1015.70 1015.83 1015.95 1016.08 1016.19 1016.37 1016.49 1016.57 1016.66 1016.65 1016.75 1016.65 1016.38 1016.43 1016.22
1005.82 1005.66 1005.44 1005.10 1005.08 1005.46 1005.47 1006.38 1006.79 1007.26 1007.89 1008.96 1009.40 1009.92 1010.30 1010.14 1010.47 1010.69 1010.92 1011.50 1011.95 1012.31 1012.66 1012.96 1013.43 1013.87 1014.25 1014.45 1014.57 1014.76 1014.94 1015.10 1015.25 1015.35 1015.49 1015.66 1015.77 1015.87 1016.14 1016.28 1016.27 1016.17 1016.35 1016.47 1016.38 1016.29 1016.27 1016.21 1016.03
1006.87 1006.69 1006.24 1005.58 1005.18 1005.42 1005.59 1006.10 1006.25 1006.77 1007.56 1008.47 1009.15 1009.40 1009.72 1010.07 1010.00 1010.09 1010.28 1010.71 1011.11 1011.50 1012.20 1012.64 1012.96 1013.29 1013.69 1014.06 1014.24 1014.45 1014.57 1014.89 1014.90 1015.07 1015.16 1015.19 1015.34 1015.48 1015.63 1015.74 1015.41 1015.61 1015.95 1016.30 1016.29 1016.07 1016.16 1016.11 1016.02
1007.43 1007.00 1006.44 1006.04 1005.38 1005.82 1006.24 1006.23 1006.70 1006.96 1007.28 1007.81 1008.39 1009.01 1009.19 1009.39 1009.09 1009.26 1009.55 1009.97 1010.57 1011.03 1011.59 1012.15 1012.57 1012.88 1013.32 1013.88 1014.16 1014.39 1014.67 1014.60 1014.54 1014.69 1014.73 1014.70 1014.78 1014.92 1015.12 1015.32 1015.34 1015.46 1015.66 1015.95 1016.12 1016.03 1015.91 1016.04 1015.97
1006.96 1006.84 1006.61 1005.74 1005.78 1006.41 1006.61 1006.88 1006.96 1007.28 1007.40 1007.63 1007.91 1008.12 1008.22 1008.32 1008.42 1008.56 1008.98 1009.35 1010.08 1010.82 1011.28 1011.66 1012.13 1012.44 1013.09 1013.73 1014.13 1014.35 1014.30 1014.29 1014.31 1014.17 1014.18 1014.46 1014.38 1014.48 1014.80 1014.94 1015.12 1015.24 1015.39 1014.87 1015.31 1015.95 1015.95 1015.91 1015.60
1006.74 1006.75 1006.55 1005.92 1006.20 1006.89 1007.14 1006.76 1007.00 1006.96 1006.90 1007.06 1007.15 1007.39 1007.41 1007.56 1007.97 1008.44 1008.58 1008.94 1009.40 1009.85 1010.42 1011.19 1011.50 1012.03 1012.46 1012.97 1013.33 1013.66 1013.90 1014.07 1013.89 1013.67 1013.82 1013.88 1013.99 1014.17 1014.49 1014.60 1014.95 1015.15 1015.29 1015.32 1015.46 1015.57 1015.63 1015.46 1015.36
1006.34 1006.63 1006.54 1006.46 1006.91 1007.32 1007.58 1006.87 1006.56 1006.53 1006.35 1006.51 1006.35 1006.25 1006.82 1007.05 1007.39 1007.79 1008.28 1008.51 1008.91 1009.48 1009.96 1010.45 1010.83 1011.29 1011.81 1012.42 1013.04 1013.55 1013.77 1013.86 1013.82 1013.74 1013.66 1013.80 1013.84 1013.99 1014.15 1014.26 1014.47 1014.81 1015.13 1015.29 1015.28 1015.37 1015.44 1015.32 1015.31
1005.96 1006.10 1006.17 1007.09 1008.08 1008.85 1008.96 1008.51 1007.04 1006.77 1006.55 1006.41 1006.16 1006.22 1006.26 1006.45 1006.96 1007.30 1007.71 1008.23 1008.52 1008.66 1009.17 1009.63 1010.23 1010.82 1011.30 1011.93 1012.66 1013.13 1013.35 1013.72 1013.62 1013.64 1013.85 1013.79 1013.87 1013.93 1014.10 1014.23 1014.32 1014.64 1014.94 1015.14 1015.17 1015.26 1015.33 1015.23 1015.28
1005.93 1006.03 1006.88 1008.16 1009.40 1009.88 1009.91 1009.89 1006.76 1006.66 1006.54 1005.89 1005.56 1005.50 1005.68 1005.91 1006.32 1006.64 1006.96 1007.22 1007.46 1008.07 1008.56 1009.02 1009.65 1010.29 1010.84 1011.42 1012.04 1012.71 1013.05 1013.26 1013.61 1013.77 1013.96 1014.21 1014.29 1014.16 1014.19 1014.30 1014.52 1014.71 1014.86 1014.95 1015.08 1015.13 1015.06 1015.13 1015.20
1005.52 1007.00 1008.26 1009.53 1010.60 1011.09 1010.31 1010.19 1006.92 1005.81 1004.82 1004.76 1004.98 1005.04 1005.27 1005.62 1005.84 1006.00 1006.13 1006.65 1007.11 1007.56 1008.08 1008.75 1009.34 1009.86 1010.34 1011.16 1011.71 1012.22 1012.63 1012.97 1013.42 1013.89 1014.11 1014.29 1014.45 1014.49 1014.34 1014.38 1014.42 1014.53 1014.78 1014.90 1015.00 1015.10 1015.08 1015.20 1015.21
1006.10 1008.03 1009.73 1011.02 1011.80 1011.54 1010.48 1010.18 1006.26 1004.86 1004.28 1003.95 1004.08 1004.19 1004.27 1004.56 1005.23 1005.64 1006.02 1006.43 1006.94 1007.41 1007.73 1008.28 1008.93 1009.67 1010.19 1010.70 1011.19 1011.72 1012.20 1012.60 1013.07 1013.60 1013.95 1014.17 1014.42 1014.54 1014.49 1014.53 1014.59 1014.69 1014.82 1014.90 1014.97 1015.19 1015.27 1015.41 1015.51
1006.11 1007.38 1009.08 1010.59 1011.83 1011.15 1010.40 1008.79 1004.97 1003.84 1003.47 1003.25 1003.51 1003.60 1003.92 1004.22 1004.67 1005.07 1005.21 1005.58 1006.18 1006.71 1007.24 1007.86 1008.48 1009.23 1009.81 1010.20 1010.61 1011.09 1011.81 1012.30 1012.86 1013.37 1013.84 1013.95 1014.22 1014.40 1014.59 1014.73 1014.77 1014.77 1014.97 1015.16 1015.27 1015.59 1015.91 1016.07 1016.08
1005.88 1007.02 1007.67 1009.87 1011.28 1010.93 1009.40 1007.57 1004.73 1003.51 1003.37 1003.42 1003.29 1003.53 1003.72 1003.85 1004.25 1004.52 1004.93 1005.15 1005.46 1005.96 1006.43 1007.05 1007.86 1008.58 1009.17 1009.49 1010.21 1010.75 1011.39 1011.98 1012.54 1013.11 1013.41 1013.78 1014.17 1014.45 1014.72 1014.83 1014.92 1014.99 1015.24 1015.49 1015.77 1016.09 1016.40 1016.57 1016.80
1004.68 1005.86 1007.84 1009.38 1010.75 1010.81 1009.18 1007.75 1005.40 1003.90 1003.52 1003.47 1003.45 1003.32 1003.47 1003.69 1003.92 1004.06 1004.35 1004.48 1004.81 1005.28 1005.78 1006.55 1007.11 1007.71 1008.27 1008.80 1009.50 1010.27 1010.88 1011.44 1012.13 1012.73 1013.19 1013.64 1014.08 1014.50 1014.77 1015.04 1015.14 1015.35 1015.58 1015.84 1016.09 1016.46 1016.75 1016.80 1017.11
1005.03 1005.83 1007.43 1008.72 1009.45 1009.76 1008.95 1007.01 1003.89 1003.19 1003.33 1003.17 1003.26 1003.14 1003.18 1003.41 1003.57 1003.66 1003.86 1003.99 1004.31 1004.80 1005.47 1006.09 1006.65 1007.14 1007.86 1008.42 1008.98 1009.72 1010.57 1011.15 1011.59 1012.30 1013.04 1013.51 1013.93 1014.36 1014.73 1015.01 1015.13 1015.30 1015.57 1015.88 1016.13 1016.53 1016.86 1017.08 1017.42
1004.29 1005.13 1006.53 1008.35 1009.52 1009.49 1008.30 1005.52 1003.00 1002.50 1002.58 1002.93 1002.90 1002.84 1002.82 1003.04 1003.09 1003.19 1003.17 1003.39 1003.96 1004.45 1005.16 1005.68 1006.32 1006.66 1007.03 1007.80 1008.56 1009.19 1009.99 1010.87 1011.57 1012.23 1012.75 1013.24 1013.81 1014.16 1014.45 1014.79 1015.15 1015.49 1015.83 1016.16 1016.45 1016.74 1017.05 1017.18 1017.42
Thickness
5804 5801 5798 5784 5761 5757 5741 5753 5761 5758 5758 5773 5780 5769 5763 5762 5754 5734 5762 5767 5768 5765 5763 5761 5760 5758 5757 5755 5755 5754 5754 5754 5751 5750 5750 5752 5752 5751 5750 5751 5752 5752 5751 5749 5750 5749 5749 5749 5746
5804 5801 5793 5778 5752 5739 5739 5765 5763 5769 5774 5779 5782 5775 5766 5753 5762 5758 5759 5766 5768 5766 5763 5761 5759 5756 5755 5754 5754 5753 5753 5752 5751 5751 5751 5751 5752 5751 5750 5752 5752 5752 5750 5748 5748 5748 5747 5746 5744
5805 5804 5780 5768 5750 5740 5746 5763 5771 5775 5782 5780 5777 5780 5767 5757 5762 5762 5769 5769 5768 5766 5763 5761 5758 5755 5754 5753 5752 5752 5752 5752 5751 5750 5751 5751 5750 5751 5752 5753 5752 5751 5751 5749 5747 5748 5747 5744 5742
5802 5793 5784 5760 5755 5767 5768 5770 5778 5776 5787 5788 5782 5761 5769 5774 5768 5769 5771 5771 5768 5766 5763 5760 5757 5755 5753 5751 5751 5750 5751 5751 5752 5752 5752 5753 5752 5753 5754 5754 5753 5752 5751 5749 5747 5746 5745 5743 5741
5802 5788 5764 5761 5764 5776 5780 5781 5781 5776 5780 5783 5782 5758 5756 5768 5776 5774 5772 5772 5769 5765 5763 5761 5758 5756 5755 5753 5751 5751 5751 5751 5751 5752 5753 5752 5752 5754 5754 5754 5752 5752 5751 5750 5748 5745 5744 5742 5741
5787 5784 5756 5750 5764 5781 5787 5789 5785 5784 5783 5780 5772 5764 5759 5772 5774 5772 5772 5770 5769 5767 5763 5761 5759 5758 5756 5754 5752 5751 5751 5752 5752 5751 5752 5752 5752 5753 5755 5753 5752 5752 5751 5751 5749 5746 5743 5742 5740
5791 5774 5761 5764 5765 5779 5790 5798 5785 5784 5780 5778 5787 5762 5761 5765 5772 5773 5770 5769 5767 5765 5762 5761 5760 5758 5756 5754 5752 5753 5753 5752 5752 5752 5752 5753 5753 5754 5754 5753 5753 5752 5752 5752 5750 5748 5745 5742 5741
5796 5780 5767 5770 5770 5776 5801 5800 5801 5791 5782 5798 5797 5765 5758 5769 5773 5772 5769 5767 5765 5763 5762 5760 5759 5758 5756 5755 5754 5754 5753 5752 5753 5752 5752 5753 5754 5754 5754 5753 5753 5752 5753 5752 5750 5748 5746 5744 5742
5807 5773 5764 5777 5778 5789 5809 5797 5803 5808 5792 5794 5797 5791 5787 5781 5775 5768 5763 5761 5761 5762 5762 5759 5758 5757 5756 5755 5754 5754 5754 5754 5754 5753 5753 5753 5754 5754 5754 5753 5753 5753 5752 5750 5750 5748 5747 5745 5744
5794 5773 5784 5805 5807 5797 5808 5806 5800 5792 5786 5785 5781 5786 5786 5779 5774 5767 5763 5761 5759 5759 5760 5761 5759 5759 5758 5756 5755 5755 5756 5756 5755 5754 5754 5755 5755 5754 5754 5754 5754 5754 5753 5752 5751 5749 5748 5746 5744
5797 5785 5803 5812 5818 5818 5808 5804 5812 5794 5781 5790 5780 5779 5779 5774 5772 5769 5766 5765 5764 5762 5761 5762 5761 5760 5759 5759 5758 5758 5757 5757 5756 5756 5756 5756 5756 5755 5754 5754 5754 5753 5752 5754 5752 5750 5748 5747 5746
5793 5806 5811 5818 5823 5818 5806 5810 5802 5802 5803 5809 5798 5790 5783 5774 5771 5771 5770 5770 5767 5764 5763 5764 5762 5761 5761 5761 5761 5761 5759 5758 5758 5758 5758 5757 5756 5755 5754 5754 5754 5753 5752 5751 5750 5748 5747 5746 5746
5804 5814 5820 5824 5824 5819 5815 5802 5800 5800 5811 5811 5801 5792 5781 5778 5776 5777 5777 5774 5771 5767 5767 5767 5766 5765 5764 5762 5762 5761 5762 5761 5761 5761 5761 5759 5757 5756 5754 5753 5753 5752 5752 5750 5748 5746 5745 5745 5746
5819 5815 5815 5822 5822 5820 5807 5803 5808 5807 5813 5804 5797 5789 5786 5781 5782 5777 5776 5776 5775 5774 5772 5770 5768 5766 5765 5764 5764 5765 5764 5764 5762 5762 5762 5761 5759 5757 5755 5753 5752 5751 5750 5748 5747 5747 5747 5747 5747
5821 5806 5816 5818 5821 5809 5818 5796 5791 5807 5808 5799 5797 5792 5790 5787 5784 5785 5786 5783 5781 5780 5777 5774 5772 5770 5768 5767 5767 5766 5765 5764 5764 5764 5763 5762 5759 5758 5756 5754 5752 5749 5748 5748 5746 5745 5747 5748 5749
5804 5808 5787 5815 5818 5817 5817 5782 5802 5810 5806 5792 5793 5794 5790 5793 5791 5792 5793 5789 5785 5782 5780 5780 5778 5775 5772 5772 5771 5770 5770 5769 5768 5767 5765 5762 5759 5757 5754 5751 5751 5750 5748 5746 5746 5746 5747 5748 5748
5785 5775 5789 5801 5819 5817 5813 5794 5811 5815 5809 5797 5792 5795 5794 5791 5795 5797 5799 5797 5793 5790 5784 5782 5782 5780 5777 5775 5773 5773 5772 5770 5770 5768 5766 5765 5762 5759 5756 5753 5754 5751 5746 5745 5745 5747 5747 5745 5746
5774 5781 5792 5790 5811 5812 5801 5800 5808 5810 5810 5804 5800 5796 5797 5794 5800 5805 5805 5805 5800 5796 5792 5787 5787 5785 5782 5778 5777 5775 5773 5774 5773 5771 5770 5769 5767 5764 5761 5756 5753 5749 5748 5744 5742 5745 5748 5746 5745
5796 5793 5788 5808 5815 5801 5797 5797 5802 5804 5805 5804 5804 5804 5803 5805 5812 5813 5810 5810 5805 5798 5794 5793 5790 5789 5785 5780 5776 5775 5774 5775 5775 5774 5773 5771 5771 5769 5764 5760 5755 5750 5747 5745 5746 5744 5745 5744 5747
5794 5791 5791 5806 5812 5801 5793 5795 5801 5806 5809 5810 5809 5811 5813 5813 5810 5810 5812 5812 5809 5806 5801 5797 5797 5794 5791 5788 5785 5782 5780 5778 5779 5780 5778 5777 5775 5771 5767 5764 5758 5753 5749 5746 5746 5746 5745 5747 5748
5794 5788 5791 5798 5803 5801 5795 5791 5800 5809 5815 5816 5818 5826 5820 5818 5815 5815 5812 5814 5814 5810 5806 5802 5802 5801 5799 5795 5789 5783 5781 5780 5779 5779 5779 5777 5776 5773 5770 5768 5764 5761 5756 5750 5749 5749 5747 5745 5747
5786 5808 5812 5802 5783 5761 5782 5752 5788 5797 5800 5805 5812 5817 5821 5822 5821 5819 5816 5813 5813 5815 5815 5812 5809 5805 5803 5798 5791 5785 5780 5774 5778 5779 5778 5778 5775 5773 5771 5768 5766 5763 5758 5754 5753 5753 5751 5750 5747
5798 5808 5803 5789 5768 5765 5766 5749 5783 5794 5788 5802 5813 5820 5822 5826 5827 5823 5822 5823 5824 5821 5818 5815 5811 5807 5803 5800 5795 5787 5781 5780 5779 5778 5775 5775 5773 5771 5770 5768 5765 5763 5759 5758 5757 5756 5755 5753 5751
5817 5795 5780 5767 5753 5736 5761 5751 5778 5799 5813 5820 5821 5824 5824 5824 5826 5830 5832 5829 5825 5825 5822 5816 5809 5807 5805 5800 5794 5788 5783 5781 5777 5775 5773 5773 5770 5769 5768 5766 5764 5762 5760 5758 5757 5756 5755 5753 5751
5794 5767 5727 5732 5727 5726 5753 5745 5787 5817 5822 5828 5828 5828 5830 5832 5829 5826 5826 5826 5823 5822 5823 5819 5812 5805 5805 5802 5797 5791 5787 5784 5780 5776 5774 5772 5769 5767 5766 5765 5763 5760 5757 5756 5755 5752 5751 5749 5746
5783 5776 5736 5723 5718 5740 5750 5752 5802 5829 5836 5837 5838 5838 5836 5834 5833 5833 5835 5833 5829 5827 5826 5823 5816 5809 5806 5805 5800 5797 5789 5786 5781 5777 5772 5772 5770 5768 5766 5762 5759 5757 5753 5750 5748 5746 5743 5741 5739
5789 5769 5786 5738 5733 5739 5755 5778 5817 5829 5828 5835 5840 5836 5836 5838 5837 5836 5837 5837 5835 5833 5831 5828 5821 5816 5811 5810 5804 5798 5791 5786 5782 5778 5776 5773 5770 5766 5762 5759 5756 5754 5749 5746 5743 5739 5735 5732 5729
5803 5799 5763 5745 5732 5739 5749 5759 5776 5818 5827 5828 5832 5837 5840 5841 5841 5842 5842 5844 5843 5840 5836 5830 5827 5823 5818 5816 5810 5800 5793 5790 5785 5780 5776 5772 5768 5763 5759 5755 5754 5750 5746 5742 5739 5734 5729 5727 5722
5783 5779 5766 5757 5747 5732 5737 5762 5814 5825 5829 5829 5834 5840 5843 5843 5844 5847 5847 5848 5848 5844 5839 5834 5831 5827 5821 5817 5811 5804 5794 5790 5786 5781 5775 5770 5766 5762 5758 5754 5752 5748 5743 5738 5734 5729 5724 5719 5715
5802 5795 5771 5748 5754 5738 5744 5767 5839 5840 5840 5837 5838 5844 5846 5849 5849 5851 5853 5852 5848 5844 5839 5836 5832 5831 5829 5821 5813 5807 5798 5789 5784 5780 5776 5771 5765 5762 5759 5754 5749 5743 5737 5732 5727 5722 5717 5712 5707